Terre Haute, IN

1:47 PM EST on December 14, 2019 (GMT -0500)
Terre Haute International-Hulman

Weather History for KHUF - October, 2019

Change the Weather History Date:

Thursday, October 31, 2019

  Actual Average Record
Temperature  
Mean Temperature 38 °F 49 °F  
Max Temperature 47 °F 60 °F 79 °F (1971)
Min Temperature 28 °F 39 °F 23 °F (1988)
Degree Days  
Heating Degree Days 27 16  
Month to date heating degree days 318 349  
Since 1 July heating degree days 320 427  
Cooling Degree Days 0 0  
Month to date cooling degree days 34 15  
Year to date cooling degree days 1298 993  
Moisture  
Dew Point 35 °F    
Average Humidity 84    
Maximum Humidity 96    
Minimum Humidity 72    
Precipitation  
Precipitation 0.84 in 0.10 in 2.42 in (2013)
Month to date precipitation 5.44 3.57  
Year to date precipitation 43.37 38.27  
Sea Level Pressure  
Sea Level Pressure 29.91 in    
Wind  
Wind Speed 12 mph (WNW)    
Max Wind Speed 23 mph    
Max Gust Speed 36 mph    
Visibility 5 miles    
Events Rain , Snow    
T = Trace of Precipitation, MM = Missing Value Source: NWS Daily Summary

Daily Weather History Graph

Daily Weather History Graph

Search for Another Location

Airport or City:

Astronomy

Oct. 31, 2019 Rise Set
Actual Time 8:16 AM EDT 6:49 PM EDT
Civil Twilight 7:48 AM EDT 7:16 PM EDT
Nautical Twilight 7:16 AM EDT 7:48 PM EDT
Astronomical Twilight 6:45 AM EDT 8:19 PM EDT
Moon 12:03 PM EDT (10/31) 9:46 PM EDT (10/31)
Length of Visible Light 11h 28m
Length of Day
10h 33m
Waxing Crescent, 15% of the Moon is Illuminated
Oct 31
Waxing Crescent
Nov 4
First Quarter
Nov 12
Full
Nov 19
Last Quarter
Nov 26
New

Hourly Weather History & Observations

Time (EDT) Temp. Windchill Dew Point Humidity Pressure Visibility Wind Dir Wind Speed Gust Speed Precip Events Conditions
12:41 AM 46.0 °F 43.9 °F 45.0 °F 96% 29.85 in 9.0 mi North 4.6 mph - N/A   Overcast
12:53 AM 46.0 °F 43.9 °F 45.0 °F 96% 29.85 in 8.0 mi North 4.6 mph - N/A   Overcast
1:53 AM 46.0 °F 42.5 °F 45.0 °F 96% 29.81 in 3.0 mi East 6.9 mph - N/A   Overcast
2:02 AM 46.0 °F 43.1 °F 45.0 °F 96% 29.79 in 2.5 mi ENE 5.8 mph - N/A   Overcast
2:09 AM 46.0 °F 43.9 °F 45.0 °F 96% 29.78 in 3.0 mi ENE 4.6 mph - 0.00 in Rain Light Rain
2:41 AM 46.9 °F - 45.0 °F 93% 29.80 in 2.0 mi WNW 3.5 mph - 0.02 in Rain Light Rain
2:53 AM 46.9 °F - 45.0 °F 93% 29.81 in 2.0 mi WNW 5.8 mph - 0.03 in Rain Light Rain
3:21 AM 46.0 °F 43.1 °F 45.0 °F 96% 29.81 in 3.0 mi WNW 5.8 mph - 0.08 in Rain Rain
3:27 AM 46.0 °F 43.1 °F 45.0 °F 96% 29.80 in 2.5 mi NW 5.8 mph - 0.11 in Rain Rain
3:34 AM 46.0 °F 43.1 °F 45.0 °F 96% 29.79 in 3.0 mi NW 5.8 mph - 0.15 in Rain Heavy Rain
3:46 AM 46.0 °F 42.5 °F 44.1 °F 93% 29.80 in 4.0 mi West 6.9 mph - 0.19 in Rain Rain
3:53 AM 46.0 °F 41.9 °F 44.1 °F 93% 29.81 in 5.0 mi WNW 8.1 mph - 0.21 in Rain Rain
4:01 AM 46.0 °F 41.4 °F 44.1 °F 93% 29.81 in 5.0 mi WNW 9.2 mph - 0.03 in Rain Rain
4:53 AM 44.1 °F 38.6 °F 42.1 °F 93% 29.78 in 5.0 mi NW 10.4 mph - 0.26 in Rain Rain
5:19 AM 43.0 °F 40.3 °F 42.1 °F 97% 29.80 in 4.0 mi WNW 4.6 mph - 0.07 in Rain Rain
5:26 AM 43.0 °F 41.3 °F 42.1 °F 97% 29.78 in 5.0 mi NW 3.5 mph - 0.09 in Rain Rain
5:40 AM 43.0 °F 38.8 °F 41.0 °F 93% 29.78 in 4.0 mi WNW 6.9 mph - 0.14 in Rain Rain
5:53 AM 43.0 °F 39.5 °F 41.0 °F 93% 29.78 in 5.0 mi NW 5.8 mph - 0.17 in Rain Rain
6:53 AM 43.0 °F 39.5 °F 41.0 °F 93% 29.76 in 5.0 mi NNW 5.8 mph - 0.13 in Rain Rain
7:53 AM 39.0 °F 31.4 °F 37.0 °F 93% 29.77 in 10.0 mi WNW 12.7 mph 21.9 mph 0.04 in   Overcast
8:53 AM 37.0 °F 29.3 °F 35.1 °F 93% 29.78 in 6.0 mi WNW 11.5 mph 18.4 mph N/A   Overcast
9:05 AM 37.0 °F 29.3 °F 36.0 °F 96% 29.78 in 1.8 mi West 11.5 mph - 0.00 in Snow Light Snow
9:28 AM 37.0 °F 29.8 °F 35.1 °F 93% 29.80 in 5.0 mi West 10.4 mph - 0.00 in   Overcast
9:53 AM 36.0 °F 28.5 °F 34.0 °F 93% 29.82 in 3.0 mi West 10.4 mph 21.9 mph 0.00 in   Overcast
10:48 AM 35.6 °F 25.5 °F 33.8 °F 93% 29.82 in 10.0 mi West 17.3 mph 27.6 mph N/A   Overcast
10:53 AM 36.0 °F 25.6 °F 33.1 °F 89% 29.83 in 8.0 mi West 18.4 mph 28.8 mph N/A   Overcast
11:15 AM 36.0 °F 26.0 °F 33.1 °F 89% 29.83 in 6.0 mi West 17.3 mph 27.6 mph 0.00 in   Overcast
11:18 AM 35.1 °F 24.8 °F 33.1 °F 92% 29.83 in 7.0 mi West 17.3 mph 27.6 mph 0.00 in   Overcast
11:40 AM 35.1 °F 24.5 °F 32.0 °F 89% 29.85 in 2.5 mi West 18.4 mph 27.6 mph 0.00 in Snow Light Snow
11:53 AM 35.1 °F 24.5 °F 32.0 °F 89% 29.87 in 3.0 mi West 18.4 mph 29.9 mph 0.00 in Snow Light Snow
11:55 AM 35.1 °F 24.8 °F 32.0 °F 89% 29.86 in 3.0 mi West 17.3 mph 29.9 mph 0.00 in Snow Light Snow
12:37 PM 34.0 °F 24.2 °F 30.0 °F 85% 29.88 in 7.0 mi West 15.0 mph 28.8 mph 0.00 in Snow Light Snow
1:53 PM 34.0 °F 22.4 °F 28.9 °F 82% 29.92 in 9.0 mi West 20.7 mph 31.1 mph 0.00 in Snow Light Snow
2:53 PM 33.1 °F 22.6 °F 28.9 °F 85% 29.94 in 4.0 mi West 16.1 mph 23.0 mph 0.00 in Snow Light Snow
3:01 PM 33.1 °F 22.2 °F 28.0 °F 82% 29.94 in 3.0 mi West 17.3 mph 33.4 mph 0.00 in Snow Light Snow
3:10 PM 33.1 °F 23.9 °F 28.0 °F 82% 29.95 in 4.0 mi West 12.7 mph 29.9 mph 0.00 in Snow Light Snow
3:20 PM 33.1 °F 22.2 °F 28.9 °F 85% 29.96 in 1.8 mi West 17.3 mph 33.4 mph 0.00 in Snow Light Snow
3:29 PM 33.1 °F 23.4 °F 28.9 °F 85% 29.96 in 1.8 mi West 13.8 mph 29.9 mph 0.00 in Snow Light Snow
3:34 PM 33.1 °F 21.2 °F 28.9 °F 85% 29.96 in 2.0 mi West 20.7 mph 34.5 mph 0.00 in Snow Light Snow
3:40 PM 33.1 °F 21.5 °F 28.9 °F 85% 29.97 in 1.8 mi West 19.6 mph 35.7 mph 0.00 in Snow Light Snow
3:53 PM 33.1 °F 23.0 °F 28.9 °F 85% 29.99 in 1.0 mi West 15.0 mph 31.1 mph 0.00 in Snow Light Snow
4:27 PM 33.1 °F 23.4 °F 28.9 °F 85% 30.00 in 2.5 mi West 13.8 mph 26.5 mph 0.00 in Snow Light Snow
4:41 PM 33.1 °F 22.6 °F 28.9 °F 85% 30.01 in 4.0 mi West 16.1 mph 25.3 mph 0.00 in Snow Light Snow
4:50 PM 33.8 °F 23.9 °F 28.4 °F 81% 30.02 in 2.5 mi West 15.0 mph 28.8 mph 0.00 in Snow Light Snow
4:53 PM 33.1 °F 23.0 °F 28.9 °F 85% 30.03 in 3.0 mi West 15.0 mph 28.8 mph 0.00 in Snow Light Snow
5:18 PM 33.1 °F 23.0 °F 28.9 °F 85% 30.05 in 2.0 mi West 15.0 mph 25.3 mph 0.00 in Snow Light Snow
5:53 PM 33.1 °F 23.4 °F 28.0 °F 82% 30.09 in 6.0 mi West 13.8 mph 24.2 mph 0.00 in Snow Light Snow
6:53 PM 33.1 °F 22.2 °F 27.0 °F 78% 30.13 in 10.0 mi West 17.3 mph 29.9 mph 0.00 in   Overcast
7:53 PM 33.1 °F 23.4 °F 27.0 °F 78% 30.19 in 10.0 mi West 13.8 mph 21.9 mph N/A   Overcast
8:53 PM 33.1 °F 25.5 °F 27.0 °F 78% 30.22 in 10.0 mi West 9.2 mph 19.6 mph N/A   Overcast
9:53 PM 32.0 °F 24.2 °F 25.0 °F 75% 30.25 in 10.0 mi WNW 9.2 mph - N/A   Mostly Cloudy
10:02 PM 32.0 °F 24.2 °F 25.0 °F 75% 30.24 in 10.0 mi WNW 9.2 mph 18.4 mph N/A   Scattered Clouds
10:53 PM 30.0 °F 24.1 °F 25.0 °F 82% 30.27 in 10.0 mi West 5.8 mph - N/A   Clear
11:53 PM 28.9 °F 22.8 °F 25.0 °F 85% 30.27 in 10.0 mi WSW 5.8 mph - N/A   Clear